www.pogodaiklimat.ru

Погода и климат >> Архив погоды >> Индия >> Puri


ПОГОДА в Puri

  • Прогноз погоды в Puri
  • Монитор погоды в Puri
  • Климат города

АРХИВ ПОГОДЫ в Puri

Время (UTC), дата Ветер
(напр.,м/с)
 
Видим.   Явления Облачность Т
(С)
Тd
(С)
f
(%)
Тe
(С)
Тes
(С)
Комфортность P
(гПа)
Po
(гПа)
Тmin
(С)
Tmax
(С)
R
(мм)
R24
(мм)
S
(см)
18 10.12 С 1 4000 м ясно +22.2 +18.7 81 +28 +28 душно 1014.4 1014.0
21 10.12 штиль 0 4000 м ясно +20.8 +18.6 87 +25 +25 комфорт 1013.3 1013.0
00 11.12 С 1 4000 м ясно +19.0 +17.4 90 +22 +22 комфорт 1012.5 1013.0
03 11.12 СВ 1 4000 м ясно 1015.2 1015.0 +17.8
06 11.12 штиль 0 4000 м ясно 1014.5 1015.0
09 11.12 Ю 1 4000 м ясно 1012.0 1012.0
12 11.12 ЮВ 1 4000 м ясно 1012.4 1012.0 +28.6
15 11.12 штиль 0 4000 м ясно +23.6 +17.9 70 +28 +28 душно 1014.4 1014.0
18 11.12 штиль 0 4000 м ясно +22.6 +18.8 79 +28 +28 душно 1014.9 1015.0
21 11.12 С 1 4000 м ясно +21.4 +18.2 82 +26 +26 душно 1013.7 1014.0
00 12.12 С 2 4000 м ясно +19.6 +17.6 88 +23 +23 комфорт 1014.1 1014.0
03 12.12 С 1 4000 м ясно 1016.7 1017.0 +18.6
06 12.12 С 1 4000 м ясно 1015.7 1016.0
09 12.12 Ю 1 4000 м ясно 1012.7 1013.0
12 12.12 В 1 4000 м ясно 1013.7 1014.0 +29.6
15 12.12 штиль 0 4000 м ясно +24.2 +20.2 78 +30 +30 очень
душно
1015.7 1016.0
18 12.12 С 2 4000 м ясно +23.0 +20.5 86 +30 +30 очень
душно
1015.5 1016.0
21 12.12 штиль 0 4000 м ясно +21.8 +18.6 82 +27 +27 душно 1014.5 1015.0
00 13.12 СВ 1 4000 м ясно +20.0 +18.4 91 +24 +24 комфорт 1014.9 1015.0
03 13.12 С 1 2000 м мгла ясно 1017.5 1018.0 +18.6
06 13.12 штиль 0 4000 м ясно 1016.5 1017.0
09 13.12 ЮВ 2 4000 м ясно 1014.2 1014.0
12 13.12 С 1 4000 м ясно 1014.6 1015.0 +29.2
15 13.12 штиль 0 4000 м ясно +24.0 +18.0 69 +28 +28 душно 1016.7 1017.0
18 13.12 штиль 0 4000 м ясно +23.0 +17.9 73 +28 +28 душно 1016.7 1017.0
21 13.12 штиль 0 4000 м ясно +22.0 +17.8 77 +27 +27 душно 1015.7 1016.0
00 14.12 С 1 4000 м ясно 1015.5 1016.0
03 14.12 С 4 4000 м мгла 3/0
[Ci fib]
1018.1 1018.0 +19.0
06 14.12 С 3 4000 м ясно 1016.9 1017.0
09 14.12 С 1 4000 м ясно 1014.9 1015.0
12 14.12 В 2 4000 м ясно 1016.3 1016.0 +29.2
15 14.12 С 1 4000 м ясно +23.6 +22.1 91 +30 +30 очень
душно
1017.9 1018.0
18 14.12 С 1 4000 м ясно +22.6 +16.7 69 +27 +27 душно 1017.7 1018.0
21 14.12 С 1 4000 м ясно +21.6 +15.6 69 +25 +25 комфорт 1016.7 1017.0
00 15.12 С 1 4000 м 3/3 600 м
[Sc]
+21.0 +16.0 73 +26 +26 душно 1016.2 1016.0
03 15.12 С 3 4000 м 8/4 600 м
[Sc Ac trans Ci fib]
1018.9 1019.0 +19.6
06 15.12 С 3 4000 м 9/5 600 м
[Sc Ac trans Ci fib]
1017.9 1018.0
09 15.12 С 1 4000 м слабый дождь 10/6 300 м
[Sc Ac trans Ci sp]
1016.4 1016.0 0.0
12 15.12 СВ 1 4000 м {дождь} 10/6 300 м
[Sc Ac trans Ci sp]
1017.6 1018.0 +25.5 0.0
15 15.12 штиль 0 4000 м 9/6 600 м
[Sc Ac trans]
+22.4 +11.8 51 +25 +25 комфорт 1019.1 1019.0 0.0
18 15.12 С 2 4000 м 9/5 600 м
[Sc Ac trans]
+21.8 +15.9 69 +25 +25 комфорт 1018.1 1018.0 0.0
21 15.12 С 1 4000 м 8/4 600 м
[Sc Ac trans]
+20.8 +13.5 63 +24 +24 комфорт 1015.7 1016.0 0.0
00 16.12 С 2 4000 м 9/4 600 м
[Sc Ac trans Ci fib]
+21.0 +12.9 60 +24 +24 комфорт 1016.9 1017.0 0.0
03 16.12 С 3 4000 м 9/4 600 м
[Sc Ac trans Ci fib]
1019.0 1019.0 +19.8 0.0
06 16.12 С 2 4000 м 10/5 600 м
[Sc Ac trans Ci fib]
1018.1 1018.0
09 16.12 С 1 4000 м слабый дождь 10/5 600 м
[Sc Ac trans Ci fib]
1015.9 1016.0 0.0
12 16.12 С 2 4000 м {дождь} 10/5 600 м
[Sc Ac trans Ci fib]
1016.4 1016.0 +23.4 0.0
15 16.12 С 2 4000 м слабый дождь 8/5 300 м
[Sc Ac trans]
+20.0 +13.0 64 +22 +22 комфорт 1017.7 1018.0 0.2
18 16.12 С 1 4000 м {дождь} 9/6 300 м
[Sc Ac trans]
+19.2 +12.4 65 +21 +21 комфорт 1017.5 1018.0 0.2
21 16.12 СВ 2 4000 м {дождь} 9/6 300 м
[Sc Ac trans]
+18.4 +12.7 69 +19 +19 1016.5 1017.0 0.2
00 17.12 СВ 3 4000 м 9/5 300 м
[Sc Ac trans Ci fib]
+18.2 +12.5 69 +19 +19 1015.1 1015.0 0.2
03 17.12 С 3 4000 м слабый дождь 10/5 600 м
[Sc Ac trans Ci fib]
1017.3 1017.0 +17.0 0.2
06 17.12 С 3 4000 м слабый дождь 10/5 600 м
[Sc Ac trans Ci fib]
1015.8 1016.0 0.2
09 17.12 С 3 4000 м слабый дождь 10/5 600 м
[Sc Ac trans Ci fib]
1012.3 1012.0 0.2
12 17.12 С 3 4000 м слабый дождь 10/5 600 м
[Sc Ac trans Ci fib]
1012.7 1013.0 +23.0 0.4
15 17.12 С 5 4000 м слабый дождь 10/6 300 м
[Sc Ac As]
+19.8 +16.8 83 +22 +22 комфорт 1014.5 1015.0 1

 

Местоположение метеостанции Puri (Orissa, Индия): широта 19.80 долгота 85.82 высота над уровнем моря 6 м.

В архиве по умолчанию представлена погода в Puri за последнюю неделю. Архивные данные за месяц целиком и за предыдущие месяцы, начиная с января 2011 года, Вы можете получить, выбрав интересующий диапазон дат из раскрывающегося списка и нажав кнопку "Ввод!".


*Определитесь, кто Вы:
робот инопланетянин человек

Внимание! Время в таблицах - всемирное. Для получения местного времени необходимо прибавить поправку, которая в Puri равна 5.5 ч.

Смотрите также архив погоды в соседних городах и на ближайших метеорологических станциях:

Погода в Bhubaneswar (Orissa, Индия) (50 км)
Погода в Cuttack (Orissa, Индия) (75 км)
Погода в Paradip Port (Orissa, Индия) (106 км)
Погода в Gopalpur (Orissa, Индия) (115 км)
Погода в Angul (Orissa, Индия) (137 км)
Погода в Chandbali (Orissa, Индия) (145 км)
Погода в Phulbani (Orissa, Индия) (179 км)
Погода в Keongjhargarh (Orissa, Индия) (205 км)
Погода в Balasore (Orissa, Индия) (223 км)
Погода в Kalingapatam (Andhra Pradesh, Индия) (241 км)

Пояснения к столбцам:

Ветер - указаны скорость ветра в м/с - средняя за 10 мин, порывы в срок и между сроками (в фигурных скобках) и направление, откуда дует ветер: С - северный, СВ - северо-восточный, В - восточный, ЮВ - юго-восточный, Ю - южный, ЮЗ - юго-западный, З - западный, СЗ - северо-западный.
Видимость - горизонтальная дальность видимости в метрах или километрах. При видимости от 1 до 10 км при отсутствии осадков обычно наблюдается дымка, при ухудшении видимости до 1 км и менее - туман. В сухую погоду видимость может ухудшаться дымом, пылью или мглою.
Явления - указаны атмосферные явления, наблюдавшиеся в срок или в последний час перед сроком; фигурными скобками обозначены явления, наблюдавшиеся между сроками (за 1-3 часа до срока); квадратными скобками обозначены град или гололедные отложения с указанием их диаметра в мм.
Облачность - указаны через наклонную черту общая и нижняя облачность в баллах и высота нижней границы облаков в метрах; квадратными скобками обозначены формы облаков: Ci - перистые, Cs - перисто-слоистые, Cc - перисто-кучевые, Ac - высококучевые, As - высокослоистые, Sc - слоисто-кучевые, Ns - слоисто-дождевые, Cu - кучевые, Cb - кучево-дождевые. Подробнее классификацию облаков см. в Атласе облаков (PDF).
T - Температура воздуха - температура, измеренная на высоте 2 м над землей.
Td - Температура точки росы - температура, при понижении до которой содержащийся в воздухе водяной пар достигнет насыщения.
f - Относительная влажность воздуха - влажноcть воздуха, измеренная на высоте 2 м над землей.
Te - Эффективная температура - температура, которую ощущает одетый по сезону человек в тени. Характеристика душности погоды. При расчете учитывается влияние влажности воздуха и скорости ветра на теплоощущения человека.
Tes - Эффективная температура на солнце - температура, которую ощущает человек, с поправкой на солнечный нагрев. Характеристика знойности погоды. Зависит от высоты солнца над горизонтом, облачности и скорости ветра. Ночью, в пасмурную погоду, а также при ветре 12 м/с и более поправка равна нулю.
P - Атмосферное давление - приведенное к уровню моря атмосферное давление.
Po - Атмосферное давление - измеренное на уровне метеостанции атмосферное давление.
Tmin - Минимальная температура - минимум температуры воздуха на высоте 2 м над землей.
Tmax - Максимальная температура - максимум температуры воздуха на высоте 2 м над землей.
R - Количество осадков - Количество выпавших осадков за период времени, мм. При наведении курсора мыши на число - период времени, за который выпало указанное количество осадков.
R24 - Количество осадков - Количество выпавших осадков за 24 часа, мм.
S - Снежный покров - Высота снежного покрова, см. При наведении курсора мыши на число - состояние снежного покрова и степень покрытия местности в баллах.